• In Netherlands
  • List of Countries
  • For 7 days
  • Water Temperature
  • Satellite Maps
  • Weather Map
  • Weather Widgets
  • user-avatar
    Login

    Hourly Weather Yeghegnadzor

    Today, 25 March, Saturday

    Time Temperature Precipitation Wind Pressure Humidity
    00:00 -2°C° 0 mm 1 mps 652 mmHg 83%
    01:00 -2°C° 0 mm 1 mps 652 mmHg 83%
    02:00 -3°C° 0 mm 1 mps 651 mmHg 83%
    03:00 -4°C° 0 mm 1 mps 650 mmHg 83%
    04:00 -4°C° 0 mm 1 mps 650 mmHg 83%
    05:00 -4°C° 0 mm 1 mps 650 mmHg 83%
    06:00 -4°C° 0 mm 1 mps 650 mmHg 83%
    07:00 -1°C° 0 mm 1 mps 651 mmHg 79%
    08:00 +3°C° 0 mm 1 mps 652 mmHg 75%
    09:00 +6°C° 0 mm 1 mps 653 mmHg 69%
    10:00 +7°C° 0 mm 1 mps 653 mmHg 69%
    11:00 +8°C° 0 mm 1 mps 653 mmHg 68%
    12:00 +9°C° 0 mm 1 mps 652 mmHg 68%
    13:00 +9°C° 0 mm 1 mps 652 mmHg 67%
    14:00 +10°C° 0 mm 1 mps 651 mmHg 66%
    15:00 +10°C° 0 mm 1 mps 651 mmHg 65%
    16:00 +8°C° 0 mm 1 mps 650 mmHg 69%
    17:00 +5°C° 0 mm 0 mps 649 mmHg 73%
    18:00 +3°C° 0 mm 0 mps 649 mmHg 77%
    19:00 +2°C° 0 mm 0 mps 648 mmHg 78%
    20:00 0°C° 0 mm 0 mps 648 mmHg 78%
    21:00 0°C° 0 mm 1 mps 648 mmHg 79%
    22:00 0°C° 0 mm 1 mps 648 mmHg 78%
    23:00 +1°C° 0 mm 1 mps 649 mmHg 78%

    Tomorrow, 26 March, Sunday

    Time Temperature Precipitation Wind Pressure Humidity
    00:00 +2°C° 0 mm 1 mps 649 mmHg 78%
    01:00 +1°C° 0 mm 1 mps 649 mmHg 77%
    02:00 +1°C° 0 mm 1 mps 649 mmHg 76%
    03:00 +1°C° 0 mm 1 mps 649 mmHg 75%
    04:00 0°C° 0 mm 1 mps 649 mmHg 75%
    05:00 0°C° 0 mm 1 mps 649 mmHg 75%
    06:00 0°C° 0 mm 1 mps 649 mmHg 75%
    07:00 +2°C° 0 mm 1 mps 650 mmHg 71%
    08:00 +5°C° 0 mm 1 mps 650 mmHg 68%
    09:00 +7°C° 0 mm 1 mps 651 mmHg 65%
    10:00 +8°C° 0 mm 1 mps 651 mmHg 63%
    11:00 +9°C° 0 mm 1 mps 650 mmHg 61%
    12:00 +10°C° 0 mm 1 mps 650 mmHg 59%
    13:00 +10°C° 0 mm 1 mps 650 mmHg 59%
    14:00 +10°C° 0 mm 1 mps 650 mmHg 58%
    15:00 +11°C° 0 mm 1 mps 650 mmHg 58%
    16:00 +9°C° 0 mm 1 mps 650 mmHg 61%
    17:00 +8°C° 0 mm 1 mps 649 mmHg 65%
    18:00 +7°C° 0 mm 1 mps 649 mmHg 68%
    19:00 +6°C° 0 mm 1 mps 650 mmHg 69%
    20:00 +4°C° 0 mm 2 mps 650 mmHg 69%
    21:00 +3°C° 0 mm 2 mps 650 mmHg 70%
    22:00 +3°C° 0 mm 2 mps 650 mmHg 71%
    23:00 +3°C° 0 mm 2 mps 650 mmHg 72%

    Day after tomorrow, 27 March, Monday

    Time Temperature Precipitation Wind Pressure Humidity
    00:00 +3°C° 0 mm 2 mps 650 mmHg 72%
    01:00 +2°C° 0 mm 2 mps 650 mmHg 72%
    02:00 +2°C° 0 mm 2 mps 650 mmHg 72%
    03:00 +2°C° 0 mm 2 mps 650 mmHg 72%
    04:00 +2°C° 0 mm 2 mps 650 mmHg 72%
    05:00 +2°C° 0 mm 2 mps 650 mmHg 72%
    06:00 +1°C° 0 mm 2 mps 650 mmHg 72%
    07:00 +3°C° 0 mm 2 mps 650 mmHg 68%
    08:00 +5°C° 0 mm 2 mps 650 mmHg 65%
    09:00 +8°C° 0 mm 2 mps 651 mmHg 61%
    10:00 +9°C° 0 mm 2 mps 651 mmHg 60%
    11:00 +10°C° 0 mm 2 mps 650 mmHg 59%
    12:00 +12°C° 0 mm 2 mps 650 mmHg 57%
    13:00 +12°C° 0 mm 2 mps 650 mmHg 57%
    14:00 +12°C° 0 mm 2 mps 650 mmHg 57%
    15:00 +12°C° 0 mm 2 mps 649 mmHg 57%
    16:00 +10°C° 0 mm 2 mps 649 mmHg 61%
    17:00 +8°C° 0 mm 2 mps 649 mmHg 66%
    18:00 +7°C° 0 mm 2 mps 648 mmHg 70%
    19:00 +6°C° 0 mm 2 mps 649 mmHg 71%
    20:00 +6°C° 0 mm 2 mps 649 mmHg 72%
    21:00 +5°C° 0 mm 2 mps 649 mmHg 73%
    22:00 +5°C° 0 mm 2 mps 649 mmHg 74%
    23:00 +5°C° 0 mm 2 mps 649 mmHg 75%

    28 March, Tuesday

    Time Temperature Precipitation Wind Pressure Humidity
    00:00 +5°C° 0 mm 2 mps 649 mmHg 76%
    01:00 +4°C° 0 mm 2 mps 649 mmHg 77%
    02:00 +4°C° 0 mm 2 mps 649 mmHg 78%
    03:00 +4°C° 0 mm 2 mps 649 mmHg 79%
    04:00 +4°C° 0 mm 2 mps 649 mmHg 79%
    05:00 +4°C° 0 mm 2 mps 649 mmHg 79%
    06:00 +4°C° 0 mm 2 mps 648 mmHg 79%
    07:00 +5°C° 0 mm 2 mps 649 mmHg 74%
    08:00 +7°C° 0 mm 2 mps 649 mmHg 69%
    09:00 +8°C° 0 mm 3 mps 650 mmHg 65%
    10:00 +9°C° 0 mm 3 mps 650 mmHg 63%
    11:00 +10°C° 0 mm 3 mps 650 mmHg 61%
    12:00 +11°C° 0 mm 3 mps 650 mmHg 59%
    13:00 +11°C° 0.2 mm 3 mps 650 mmHg 59%
    14:00 +11°C° 0.2 mm 3 mps 650 mmHg 60%
    15:00 +11°C° 0.2 mm 3 mps 650 mmHg 60%
    16:00 +10°C° 0.1 mm 2 mps 650 mmHg 64%
    17:00 +9°C° 0.1 mm 2 mps 650 mmHg 68%
    18:00 +8°C° 0.1 mm 2 mps 650 mmHg 72%
    19:00 +7°C° 0 mm 2 mps 650 mmHg 73%
    20:00 +6°C° 0 mm 2 mps 650 mmHg 73%
    21:00 +5°C° 0 mm 2 mps 651 mmHg 74%
    22:00 +5°C° 0 mm 2 mps 651 mmHg 74%
    23:00 +5°C° 0 mm 2 mps 651 mmHg 75%

    29 March, Wednesday

    Time Temperature Precipitation Wind Pressure Humidity
    00:00 +5°C° 0 mm 2 mps 651 mmHg 75%
    01:00 +5°C° 0 mm 1 mps 651 mmHg 76%
    02:00 +5°C° 0 mm 1 mps 650 mmHg 77%
    03:00 +5°C° 0 mm 1 mps 650 mmHg 79%
    04:00 +4°C° 0 mm 1 mps 650 mmHg 80%
    05:00 +4°C° 0 mm 1 mps 650 mmHg 80%
    06:00 +4°C° 0 mm 1 mps 650 mmHg 81%
    07:00 +6°C° 0 mm 1 mps 651 mmHg 76%
    08:00 +7°C° 0 mm 2 mps 651 mmHg 71%
    09:00 +8°C° 0 mm 2 mps 651 mmHg 66%
    10:00 +9°C° 0 mm 2 mps 651 mmHg 64%
    11:00 +10°C° 0 mm 2 mps 651 mmHg 62%
    12:00 +12°C° 0 mm 2 mps 651 mmHg 60%
    13:00 +12°C° 0 mm 2 mps 651 mmHg 59%
    14:00 +12°C° 0 mm 2 mps 651 mmHg 59%
    15:00 +13°C° 0 mm 2 mps 651 mmHg 58%
    16:00 +10°C° 0 mm 2 mps 651 mmHg 63%
    17:00 +10°C° 0 mm 1 mps 651 mmHg 67%
    18:00 +9°C° 0 mm 1 mps 651 mmHg 72%
    19:00 +8°C° 0 mm 1 mps 651 mmHg 73%
    20:00 +7°C° 0 mm 1 mps 652 mmHg 75%
    21:00 +6°C° 0 mm 1 mps 652 mmHg 76%
    22:00 +6°C° 0 mm 1 mps 652 mmHg 76%
    23:00 +5°C° 0 mm 1 mps 652 mmHg 76%

    30 March, Thursday

    Time Temperature Precipitation Wind Pressure Humidity
    00:00 +5°C° 0 mm 1 mps 652 mmHg 77%
    01:00 +5°C° 0 mm 1 mps 652 mmHg 77%
    02:00 +4°C° 0 mm 1 mps 652 mmHg 78%
    03:00 +4°C° 0 mm 1 mps 652 mmHg 79%
    04:00 +4°C° 0 mm 1 mps 653 mmHg 79%
    05:00 +3°C° 0 mm 1 mps 653 mmHg 80%
    06:00 +3°C° 0 mm 1 mps 653 mmHg 80%
    07:00 +5°C° 0 mm 1 mps 654 mmHg 73%
    08:00 +8°C° 0 mm 1 mps 654 mmHg 67%
    09:00 +10°C° 0 mm 1 mps 655 mmHg 60%
    10:00 +11°C° 0 mm 1 mps 655 mmHg 59%
    11:00 +12°C° 0 mm 1 mps 654 mmHg 57%
    12:00 +13°C° 0 mm 2 mps 654 mmHg 55%
    13:00 +13°C° 0 mm 2 mps 654 mmHg 55%
    14:00 +13°C° 0 mm 2 mps 653 mmHg 56%
    15:00 +13°C° 0 mm 1 mps 653 mmHg 56%
    16:00 +12°C° 0 mm 1 mps 652 mmHg 61%
    17:00 +11°C° 0 mm 1 mps 652 mmHg 66%
    18:00 +9°C° 0 mm 1 mps 652 mmHg 71%
    19:00 +9°C° 0 mm 1 mps 652 mmHg 72%
    20:00 +8°C° 0 mm 1 mps 652 mmHg 73%
    21:00 +7°C° 0 mm 1 mps 652 mmHg 74%
    22:00 +6°C° 0 mm 2 mps 651 mmHg 74%
    23:00 +6°C° 0 mm 2 mps 651 mmHg 75%
    Show more